This demonstration page uses our WeatherBlox Daily Observations layout. Learn more.

Left ArrowRight Arrow

34.74481, -87.66753

Hourly Observations for December 4, 2017

Temp ( °F °C ) Dew Point ( °F °C ) Humidity (%) Winds ( mph kmh ) Pressure ( in mb ) Visibility ( mi km ) Precip ( " mm )
12:53 am 00:53 Clear 44 6.7 38 3.3 79 79 ESE 5 7 30.14 1021 10 16 0.00 0.00
1:53 am 01:53 Clear 47 8.3 39 3.9 74 74 Calm 30.15 1021 10 16 0.00 0.00
2:53 am 02:53 Clear 43 6.1 38 3.3 82 82 SE 3 6 30.15 1021 10 16 0.00 0.00
3:53 am 03:53 Clear 46 7.8 39 3.9 77 77 Calm 30.14 1021 10 16 0.00 0.00
4:53 am 04:53 Clear 42 5.6 38 3.3 85 85 E 3 6 30.15 1021 10 16 0.00 0.00
5:53 am 05:53 Clear 43 6.1 37 2.8 80 80 SE 5 7 30.17 1022 10 16 0.00 0.00
6:53 am 06:53 Sunny 47 8.3 40 4.4 77 77 SE 6 9 30.16 1022 10 16 0.00 0.00
7:53 am 07:53 Sunny 51 10.6 43 6.1 74 74 ESE 6 9 30.18 1022 10 16 0.00 0.00
8:53 am 08:53 Sunny 55 12.8 46 7.8 72 72 ESE 6 9 30.20 1023 10 16 0.00 0.00
9:53 am 09:53 Sunny 60 15.6 47 8.3 62 62 SSE 14 22 30.19 1023 10 16 0.00 0.00
10:53 am 10:53 Sunny 64 17.8 47 8.3 54 54 SSE 13 20 30.17 1022 10 16 0.00 0.00
11:53 am 11:53 Sunny 63 17.2 48 8.9 58 58 SSE 12 19 30.14 1021 10 16 0.00 0.00
12:53 pm 12:53 Sunny 62 16.7 49 9.4 62 62 SSE 15 24 30.13 1020 10 16 0.00 0.00
1:20 pm 13:20 Mostly Cloudy 61 16.1 49 9.4 65 65 S 14 22 30.12 1020 10 16 0.00 0.00
1:51 pm 13:51 Partly Cloudy 63 17 50 10 64 64 S 13 20 30.09 1019 10 16 0.00 0.00
1:53 pm 13:53 Mostly Sunny 62 16.7 49 9.4 62 62 S 13 20 30.12 1020 10 16 0.00 0.00
2:53 pm 14:53 Mostly Sunny 62 16.7 49 9.4 62 62 S 14 22 30.11 1020 10 16 0.00 0.00
3:53 pm 15:53 Partly Cloudy 60 15.6 49 9.4 67 67 SSE 14 22 30.11 1020 10 16 0.00 0.00
4:02 pm 16:02 Mostly Cloudy 60 15.6 49 9.4 67 67 SSE 14 22 30.09 1019 10 16 0.00 0.00
4:53 pm 16:53 Cloudy 59 15 49 9.4 69 69 SSE 10 17 30.11 1020 10 16 0.00 0.00
5:53 pm 17:53 Cloudy 59 15 51 10.6 75 75 SSE 16 26 30.11 1020 10 16 0.00 0.00
6:53 pm 18:53 Cloudy 59 15 51 10.6 75 75 S 13 20 30.12 1020 10 16 0.00 0.00
7:53 pm 19:53 Cloudy 59 15 52 11.1 78 78 SSE 14 22 30.11 1020 10 16 0.00 0.00
8:53 pm 20:53 Cloudy 59 15 51 10.6 75 75 SSE 10 17 30.10 1019 10 16 0.00 0.00
9:53 pm 21:53 Cloudy 59 15 52 11.1 78 78 SSE 13 20 30.09 1019 10 16 0.00 0.00
10:49 pm 22:49 Cloudy 61 16 52 11 72 72 SSE 13 20 30.09 1019 10 16 0.00 0.00
10:53 pm 22:53 Cloudy 60 15.6 52 11.1 75 75 SSE 12 19 30.09 1019 10 16 0.00 0.00
11:53 pm 23:53 Cloudy 60 15.6 54 12.2 80 80 S 12 19 30.07 1018 10 16 0.00 0.00

Powered by AerisWeather